www.pogodaiklimat.ru

Погода и климат >> Архив погоды >> ОАЭ >> Абу-Даби


АРХИВ ПОГОДЫ в Абу-Даби

Время (UTC), дата Ветер
(напр.,м/с)
 
Видим.   Явления Облачность Т
(С)
Тd
(С)
f
(%)
Тe
(С)
Тes
(С)
Комфортность P
(гПа)
Po
(гПа)
Тmin
(С)
Tmax
(С)
R
(мм)
R24
(мм)
S
(см)
21 13.08 В 2 10 км 5/0
[Ci fib]
+35.1 +25.8 59 +51 +51 опасность
перегрева
997.1 994.4
00 14.08 СВ 2 10 км 3/0
[Ac trans]
+34.2 +25.0 59 +48 +48 опасность
перегрева
997.1 994.4
03 14.08 СВ 2 7000 м мгла 3/0
[Ci fib]
+33.5 +25.1 62 +48 +49 опасность
перегрева
998.9 996.2
06 14.08 Ю 4 8000 м пыль 3/0
[Ci fib]
+39.1 +18.3 30 +43 +52 опасность
перегрева
999.8 997.1 +33.2
09 14.08 СЗ 2 10 км ясно +44.6 +15.5 19 +46 +67 опасность
перегрева
998.0 995.4
12 14.08 СЗ 7 8000 м пыль ясно +41.2 +24.9 40 +53 +56 опасность
перегрева
996.8 994.1
15 14.08 СЗ 6 8000 м мгла ясно +36.7 +28.7 64 +59 +59 опасность
перегрева
997.5 994.8
18 14.08 С 3 8000 м мгла ясно +34.9 +29.9 75 +61 +61 опасность
перегрева
999.3 996.6 +46.5
21 14.08 С 4 9000 м мгла ясно +34.0 +28.1 71 +55 +55 опасность
перегрева
998.7 996.0
00 15.08 СВ 3 10 км ясно +33.7 +27.4 70 +53 +53 опасность
перегрева
999.0 996.3
03 15.08 ЮВ 5 9000 м пыль ясно +34.7 +23.0 51 +45 +46 опасность
перегрева
1000.0 997.3
06 15.08 Ю 5 8000 м пыль ясно +39.3 +17.9 29 +43 +51 опасность
перегрева
1000.7 998.0 +33.2
09 15.08 ЮВ 4 10 км ясно +44.1 +15.1 19 +45 +59 опасность
перегрева
999.1 996.5
12 15.08 СЗ 6 10 км ясно +44.4 +22.9 30 +53 +56 опасность
перегрева
996.9 994.3
15 15.08 С 6 7000 м пыль ясно +37.9 +26.6 53 +55 +55 опасность
перегрева
997.5 994.8
18 15.08 С 4 8000 м пыль ясно +36.6 +25.4 53 +51 +51 опасность
перегрева
999.4 996.7 +46.8
21 15.08 СВ 3 10 км ясно +36.0 +22.2 45 +45 +45 опасность
перегрева
999.1 996.4
00 16.08 С 4 10 км ясно +34.0 +27.2 68 +53 +53 опасность
перегрева
998.7 996.0
03 16.08 ЮВ 3 5000 м пыль ясно +34.3 +20.2 44 +41 +42 опасность
перегрева
1000.2 997.5
06 16.08 Ю 5 10 км ясно +38.2 +18.5 32 +42 +50 опасность
перегрева
1000.0 997.3 +33.0
09 16.08 Ю 3 10 км ясно +44.3 +15.3 19 +45 +64 опасность
перегрева
998.4 995.8
12 16.08 СЗ 8 6000 м пыль ясно +39.3 +24.4 43 +51 +53 опасность
перегрева
996.6 993.9
15 16.08 С 6-10
{13}
8000 м пыль ясно +37.3 +25.4 51 +51 +51 опасность
перегрева
996.8 994.1 65
18 16.08 С 3 8000 м пыль ясно +35.9 +26.3 58 +52 +52 опасность
перегрева
998.1 995.4 +45.7
21 16.08 СЗ 2 7000 м пыль ясно +35.1 +25.5 58 +50 +50 опасность
перегрева
997.1 994.4
00 17.08 С 4 7000 м мгла ясно +33.9 +29.4 77 +58 +58 опасность
перегрева
996.7 994.0
03 17.08 В 3 7000 м мгла 1/1 900 м
[Sc]
+33.9 +28.5 74 +56 +57 опасность
перегрева
997.8 995.1
06 17.08 Ю 5 6000 м пыль ясно +38.6 +17.9 30 +42 +49 опасность
перегрева
998.9 996.2 +33.3
09 17.08 СЗ 6 8000 м пыль ясно +39.2 +28.4 55 +60 +68 опасность
перегрева
997.6 994.9
12 17.08 СЗ 8 8000 м пыль ясно +37.5 +27.2 56 +56 +57 опасность
перегрева
996.1 993.4
15 17.08 С 7 6000 м мгла ясно +35.7 +28.5 67 +58 +58 опасность
перегрева
996.3 993.6
18 17.08 СВ 4 9000 м мгла ясно +35.4 +26.9 62 +53 +53 опасность
перегрева
997.5 994.8 +42.3
21 17.08 СЗ 2 10 км ясно +34.3 +27.7 69 +54 +54 опасность
перегрева
997.2 994.5
00 18.08 З 3 8000 м мгла ясно +33.9 +28.3 73 +56 +56 опасность
перегрева
997.6 994.9
03 18.08 СВ 2 7000 м мгла ясно +33.9 +27.6 70 +54 +55 опасность
перегрева
999.2 996.5
06 18.08 Ю 3 5000 м пыль ясно +38.4 +18.2 31 +42 +54 опасность
перегрева
1000.4 997.7 +33.6
09 18.08 ЮВ 3 8000 м пыль ясно +42.6 +19.6 27 +47 +66 опасность
перегрева
999.3 996.6
12 18.08 СЗ 7 7000 м пыль ясно +37.6 +28.7 61 +60 +62 опасность
перегрева
998.1 995.4
15 18.08 С 6 8000 м мгла 4/0
[Ci fib]
+37.3 +26.1 53 +53 +53 опасность
перегрева
999.2 996.5
18 18.08 СЗ 4 9000 м мгла 5/0
[Ac trans]
+35.7 +27.5 63 +55 +55 опасность
перегрева
1000.6 997.9 +44.3
21 18.08 СЗ 6 9000 м мгла 6/0
[Ac trans]
+35.2 +28.6 69 +58 +58 опасность
перегрева
1000.4 997.7
00 19.08 С 4 10 км 4/0
[Ac trans]
+35.0 +26.6 62 +52 +52 опасность
перегрева
999.6 996.9
03 19.08 В 2 10 км 1/0
[Ac trans]
+34.8 +21.1 45 +42 +43 опасность
перегрева
1001.8 999.1
06 19.08 Ю 4 3500 м пыль ясно +38.1 +19.9 35 +44 +53 опасность
перегрева
1003.1 1000.4 +34.0
09 19.08 В 3 8000 м пыль ясно +42.2 +18.0 25 +45 +62 опасность
перегрева
1001.7 999.0
12 19.08 С 6 7000 м пыль ясно +41.3 +25.0 40 +54 +57 опасность
перегрева
1000.1 997.4
15 19.08 С 6 6000 м пыль 1/0
[Ac trans]
+37.8 +25.6 50 +52 +52 опасность
перегрева
1000.8 998.1
18 19.08 СВ 5 10 км ясно +36.5 +24.0 49 +48 +48 опасность
перегрева
1002.2 999.5 +44.9
21 19.08 СВ 4 10 км ясно +34.5 +25.5 60 +49 +49 опасность
перегрева
1001.8 999.1
00 20.08 В 2 10 км ясно +32.7 +22.7 56 +43 +43 опасность
перегрева
1002.1 999.3
03 20.08 Ю 4 5000 м пыль ясно +33.0 +19.4 45 +39 +39 очень
душно
1004.5 1001.7
06 20.08 Ю 6 8000 м пыль ясно +35.8 +17.9 35 +40 +45 очень
душно
1005.4 1002.7 +31.4
09 20.08 Ю 5 10 км ясно +40.9 +17.5 26 +44 +56 опасность
перегрева
1003.7 1001.0
12 20.08 З 5 10 км ясно +43.3 +15.3 20 +44 +49 опасность
перегрева
1001.5 998.8
15 20.08 СЗ 5 10 км ясно +36.8 +25.0 51 +50 +50 опасность
перегрева
1002.2 999.5
18 20.08 С 4 10 км ясно +34.3 +27.2 67 +53 +53 опасность
перегрева
1003.2 1000.5 +43.9

 

Местоположение метеостанции Абу-Даби (ОАЭ): широта 24.43 долгота 54.65 высота над уровнем моря 27 м.

В архиве по умолчанию представлена погода в Абу-Даби за последнюю неделю. Архивные данные за месяц целиком и за предыдущие месяцы, начиная с января 2011 года, Вы можете получить, выбрав интересующий диапазон дат из раскрывающегося списка и нажав кнопку "Ввод!".


*Определитесь, кто Вы:
робот инопланетянин человек

Внимание! Время в таблицах - всемирное. Для получения местного времени необходимо прибавить поправку, которая равна 4 ч.

Смотрите также архив погоды в соседних городах и на ближайших метеорологических станциях:

Погода в Абу-Даби Батин аэропорту (ОАЭ) (19 км)
Погода в Аль-Мактум аэропорту (ОАЭ) (73 км)
Погода в Эль-Айне (ОАЭ) (98 км)
Погода в Дубае (ОАЭ) (114 км)
Погода в Эль-Бурайми (Оман) (117 км)
Погода в Шардже (ОАЭ) (133 км)
Погода на Острове Абу-Муса (Иран) (157 км)
Погода на Острове Сирри (Иран) (165 км)
Погода в Кумейре (Оман) (167 км)
Погода в Рай-эль-Хайма аэропорту (ОАЭ) (185 км)

Пояснения к столбцам:

Ветер - указаны скорость ветра в м/с - средняя за 10 мин, порывы в срок и между сроками (в фигурных скобках) и направление, откуда дует ветер: С - северный, СВ - северо-восточный, В - восточный, ЮВ - юго-восточный, Ю - южный, ЮЗ - юго-западный, З - западный, СЗ - северо-западный.
Видимость - горизонтальная дальность видимости в метрах или километрах. При видимости от 1 до 10 км при отсутствии осадков обычно наблюдается дымка, при ухудшении видимости до 1 км и менее - туман. В сухую погоду видимость может ухудшаться дымом, пылью или мглою.
Явления - указаны атмосферные явления, наблюдавшиеся в срок или в последний час перед сроком; фигурными скобками обозначены явления, наблюдавшиеся между сроками (за 1-3 часа до срока); квадратными скобками обозначены град или гололедные отложения с указанием их диаметра в мм.
Облачность - указаны через наклонную черту общая и нижняя облачность в баллах и высота нижней границы облаков в метрах; квадратными скобками обозначены формы облаков: Ci - перистые, Cs - перисто-слоистые, Cc - перисто-кучевые, Ac - высококучевые, As - высокослоистые, Sc - слоисто-кучевые, Ns - слоисто-дождевые, Cu - кучевые, Cb - кучево-дождевые. Подробнее классификацию облаков см. в Атласе облаков (PDF).
T - Температура воздуха - температура, измеренная на высоте 2 м над землей.
Td - Температура точки росы - температура, при понижении до которой содержащийся в воздухе водяной пар достигнет насыщения.
f - Относительная влажность воздуха - влажноcть воздуха, измеренная на высоте 2 м над землей.
Te - Эффективная температура - температура, которую ощущает одетый по сезону человек в тени. Характеристика душности погоды. При расчете учитывается влияние влажности воздуха и скорости ветра на теплоощущения человека.
Tes - Эффективная температура на солнце - температура, которую ощущает человек, с поправкой на солнечный нагрев. Характеристика знойности погоды. Зависит от высоты солнца над горизонтом, облачности и скорости ветра. Ночью, в пасмурную погоду, а также при ветре 12 м/с и более поправка равна нулю.
P - Атмосферное давление - приведенное к уровню моря атмосферное давление.
Po - Атмосферное давление - измеренное на уровне метеостанции атмосферное давление.
Tmin - Минимальная температура - минимум температуры воздуха на высоте 2 м над землей.
Tmax - Максимальная температура - максимум температуры воздуха на высоте 2 м над землей.
R - Количество осадков - Количество выпавших осадков за период времени, мм. При наведении курсора мыши на число - период времени, за который выпало указанное количество осадков.
R24 - Количество осадков - Количество выпавших осадков за 24 часа, мм.
S - Снежный покров - Высота снежного покрова, см. При наведении курсора мыши на число - состояние снежного покрова и степень покрытия местности в баллах.